Location: Axtheid
(49.6213°N, 11.8205°E)
Time: 07:45:05
(UTC+00:00)

STARLINK-1169 - Pass Details

Date: 18 February 2020
Orbit: 553 x 556 km, 53.0° (Epoch: 31 March)

Event Time Altitude Azimuth Distance (km) Brightness Sun altitude
Exits shadow 05:29:14 10° 292° (WNW) 1,837 5.7 -8.6°
Maximum altitude 05:33:24 69° 16° (NNE) 611 3.9 -7.9°
Drops below altitude 10° 05:37:39 10° 101° (E) 1,871 8.2 -7.2°
Sets 05:39:55 0° 103° (ESE) 2,768 9.9 -6.9°
